Simultaneous Nadir Overpasses (SNOs) Predictions

Prediction of SNOs near US between AQUA and NPP Satellite Orbit:

Table of predicted SNOs near US for the next 10.0 days since TLE Epoch: 2/23/2018
Index Date (AQUA) Time (AQUA) AQUA Lat,Lon Date (NPP) Time (NPP) NPP Lat,Lon Distance(km) Time Diff (sec)
1 02/25/2018 18:17:32 49.98, -80.21 02/25/2018 18:10:03 49.73, -81.68 109.29 449
2 02/25/2018 19:56:25 49.98,-104.92 02/25/2018 19:51:31 49.62,-107.00 154.50 294
3 02/25/2018 21:31:34 36.62,-124.98 02/25/2018 21:29:08 36.13,-127.46 228.67 146
4 02/28/2018 09:25:08 20.02,-114.22 02/28/2018 09:16:48 18.07,-115.12 236.31 500
5 03/03/2018 06:31:55 42.93, -66.23 03/03/2018 06:30:58 43.26, -68.26 169.28 57
6 03/03/2018 08:08:51 49.88, -88.32 03/03/2018 08:10:25 50.35, -90.77 182.17 94
7 03/03/2018 09:47:44 49.89,-113.04 03/03/2018 09:51:52 50.52,-116.07 226.58 248




NCC Satellite Simultaneous Nadir Overpasses (SNOs) Prediction Service
